| time (UTC) | temp C | wind direction | speed KPH | gust KPH | rain 1hr cm | rain 24hr cm | rain mn cm | humidity % | barometer mb |
| 20260507130613 | 11 | 111 | 1.6 | 3.2 | 0.00 | 0.03 | 0.03 | 63 | 1016.2 |
| 20260507130111 | 11 | 93 | 0.0 | 0.0 | 0.00 | 0.03 | 0.03 | 64 | 1016.2 |
| 20260507125609 | 11 | 106 | 1.6 | 4.8 | 0.00 | 0.03 | 0.03 | 65 | 1016.2 |
| 20260507125106 | 11 | 89 | 0.0 | 0.0 | 0.00 | 0.03 | 0.03 | 70 | 1016.1 |
| 20260507124603 | 11 | 102 | 6.4 | 8.0 | 0.00 | 0.03 | 0.03 | 66 | 1016.2 |
| 20260507124101 | 10 | 93 | 3.2 | 4.8 | 0.00 | 0.03 | 0.03 | 69 | 1016.2 |
| 20260507123558 | 10 | 91 | 3.2 | 4.8 | 0.00 | 0.03 | 0.03 | 67 | 1016.1 |
| 20260507123055 | 10 | 83 | 3.2 | 3.2 | 0.00 | 0.03 | 0.03 | 66 | 1016.2 |
| 20260507122550 | 10 | 86 | 0.0 | 3.2 | 0.00 | 0.03 | 0.03 | 66 | 1016.1 |
| 20260507122046 | 10 | 85 | 1.6 | 3.2 | 0.00 | 0.03 | 0.03 | 66 | 1016.1 |
| 20260507121542 | 10 | 90 | 1.6 | 3.2 | 0.00 | 0.03 | 0.03 | 66 | 1015.9 |
| 20260507121038 | 10 | 88 | 1.6 | 3.2 | 0.00 | 0.03 | 0.03 | 68 | 1015.9 |
| 20260507120534 | 10 | 100 | 3.2 | 3.2 | 0.00 | 0.03 | 0.03 | 67 | 1016.0 |
| 20260507120032 | 10 | 89 | 0.0 | 0.0 | 0.00 | 0.03 | 0.03 | 68 | 1016.0 |
| 20260507115528 | 10 | 90 | 0.0 | 3.2 | 0.00 | 0.03 | 0.03 | 65 | 1016.0 |
| 20260507115024 | 10 | 90 | 0.0 | 0.0 | 0.00 | 0.03 | 0.03 | 66 | 1015.9 |
| 20260507114520 | 10 | 82 | 0.0 | 3.2 | 0.00 | 0.03 | 0.03 | 67 | 1016.2 |
| 20260507114017 | 10 | 92 | 3.2 | 3.2 | 0.00 | 0.03 | 0.03 | 68 | 1016.0 |
| 20260507113514 | 10 | 81 | 1.6 | 4.8 | 0.00 | 0.03 | 0.03 | 67 | 1015.9 |
| 20260507113011 | 10 | 95 | 0.0 | 3.2 | 0.00 | 0.03 | 0.03 | 69 | 1015.9 |
| 20260507112509 | 10 | 85 | 1.6 | 3.2 | 0.00 | 0.03 | 0.03 | 69 | 1016.0 |
| 20260507112006 | 10 | 89 | 3.2 | 3.2 | 0.00 | 0.03 | 0.03 | 69 | 1015.9 |
| 20260507111503 | 10 | 85 | 1.6 | 3.2 | 0.00 | 0.03 | 0.03 | 70 | 1016.0 |
| 20260507110959 | 10 | 83 | 0.0 | 0.0 | 0.00 | 0.03 | 0.03 | 71 | 1015.8 |
| 20260507110455 | 10 | 89 | 0.0 | 0.0 | 0.00 | 0.03 | 0.03 | 70 | 1015.9 |
| 20260507105952 | 10 | 75 | 0.0 | 0.0 | 0.00 | 0.03 | 0.03 | 69 | 1015.8 |
| 20260507105449 | 10 | 77 | 0.0 | 0.0 | 0.00 | 0.03 | 0.03 | 67 | 1015.8 |
| 20260507104945 | 10 | 80 | 0.0 | 0.0 | 0.00 | 0.03 | 0.03 | 67 | 1015.6 |
| 20260507104443 | 10 | 93 | 4.8 | 4.8 | 0.00 | 0.03 | 0.03 | 66 | 1015.4 |
| 20260507103938 | 10 | 84 | 1.6 | 3.2 | 0.00 | 0.03 | 0.03 | 66 | 1015.4 |
| 20260507103435 | 10 | 104 | 4.8 | 4.8 | 0.00 | 0.03 | 0.03 | 66 | 1015.4 |
| 20260507102931 | 10 | 101 | 3.2 | 4.8 | 0.00 | 0.03 | 0.03 | 67 | 1015.4 |
| 20260507102428 | 10 | 105 | 3.2 | 4.8 | 0.00 | 0.03 | 0.03 | 67 | 1015.5 |
| 20260507101925 | 10 | 85 | 0.0 | 0.0 | 0.00 | 0.03 | 0.03 | 70 | 1015.4 |
| 20260507101420 | 10 | 102 | 3.2 | 4.8 | 0.00 | 0.03 | 0.03 | 67 | 1015.3 |
| 20260507100916 | 10 | 96 | 1.6 | 3.2 | 0.00 | 0.03 | 0.03 | 69 | 1014.9 |
| 20260507100414 | 10 | 86 | 0.0 | 3.2 | 0.00 | 0.03 | 0.03 | 69 | 1014.9 |
| 20260507095912 | 10 | 105 | 4.8 | 4.8 | 0.00 | 0.03 | 0.03 | 69 | 1014.9 |
| 20260507095409 | 10 | 82 | 1.6 | 3.2 | 0.00 | 0.03 | 0.03 | 68 | 1014.8 |
| 20260507094906 | 10 | 72 | 1.6 | 3.2 | 0.00 | 0.03 | 0.03 | 69 | 1014.8 |
| 20260507094402 | 10 | 92 | 0.0 | 0.0 | 0.00 | 0.03 | 0.03 | 70 | 1014.9 |
| 20260507093859 | 10 | 103 | 3.2 | 4.8 | 0.00 | 0.03 | 0.03 | 70 | 1014.9 |
| 20260507093358 | 10 | 167 | 3.2 | 8.0 | 0.00 | 0.03 | 0.03 | 71 | 1015.0 |
| 20260507092856 | 10 | 129 | 6.4 | 8.0 | 0.00 | 0.03 | 0.03 | 70 | 1015.0 |
| 20260507092351 | 10 | 79 | 8.0 | 12.9 | 0.00 | 0.03 | 0.03 | 71 | 1015.0 |
| 20260507091848 | 10 | 90 | 1.6 | 3.2 | 0.00 | 0.03 | 0.03 | 73 | 1014.8 |
| 20260507091344 | 10 | 74 | 4.8 | 9.7 | 0.00 | 0.03 | 0.03 | 74 | 1015.0 |
| 20260507090840 | 11 | 111 | 3.2 | 8.0 | 0.00 | 0.03 | 0.03 | 78 | 1014.9 |
| 20260507090336 | 10 | 126 | 9.7 | 12.9 | 0.00 | 0.03 | 0.03 | 77 | 1014.9 |
| 20260507085834 | 10 | 84 | 4.8 | 9.7 | 0.00 | 0.03 | 0.03 | 81 | 1014.5 |
| 20260507085330 | 10 | 124 | 8.0 | 9.7 | 0.00 | 0.03 | 0.03 | 83 | 1014.7 |
| 20260507084828 | 10 | 94 | 1.6 | 3.2 | 0.00 | 0.03 | 0.03 | 85 | 1014.6 |
| 20260507084324 | 10 | 90 | 3.2 | 4.8 | 0.00 | 0.03 | 0.03 | 85 | 1014.5 |
| 20260507083822 | 10 | 145 | 3.2 | 4.8 | 0.00 | 0.03 | 0.03 | 86 | 1014.7 |
| 20260507083318 | 10 | 102 | 4.8 | 4.8 | 0.00 | 0.03 | 0.03 | 85 | 1014.7 |
| 20260507082814 | 10 | 91 | 0.0 | 0.0 | 0.00 | 0.03 | 0.03 | 85 | 1014.5 |
| 20260507082310 | 10 | 101 | 8.0 | 9.7 | 0.00 | 0.03 | 0.03 | 85 | 1014.4 |
| 20260507081808 | 10 | 89 | 1.6 | 3.2 | 0.00 | 0.03 | 0.03 | 85 | 1014.2 |
| 20260507081303 | 10 | 97 | 1.6 | 4.8 | 0.00 | 0.03 | 0.03 | 85 | 1014.1 |
| 20260507080800 | 10 | 82 | 0.0 | 3.2 | 0.00 | 0.03 | 0.03 | 85 | 1014.0 |
| 20260507080257 | 10 | 108 | 0.0 | 0.0 | 0.00 | 0.03 | 0.03 | 85 | 1014.1 |
| 20260507075751 | 10 | 64 | 4.8 | 4.8 | 0.00 | 0.03 | 0.03 | 85 | 1014.1 |
| 20260507075248 | 10 | 105 | 4.8 | 4.8 | 0.00 | 0.03 | 0.03 | 84 | 1014.1 |
| 20260507074744 | 10 | 97 | 3.2 | 4.8 | 0.00 | 0.03 | 0.03 | 85 | 1014.1 |
| 20260507074243 | 10 | 98 | 0.0 | 0.0 | 0.00 | 0.03 | 0.03 | 86 | 1014.3 |
| 20260507073739 | 11 | 81 | 0.0 | 0.0 | 0.00 | 0.03 | 0.03 | 86 | 1014.0 |
| 20260507073235 | 11 | 79 | 1.6 | 3.2 | 0.00 | 0.03 | 0.03 | 86 | 1013.9 |
| 20260507072733 | 11 | 74 | 0.0 | 0.0 | 0.00 | 0.03 | 0.03 | 87 | 1014.1 |
| 20260507072230 | 11 | 131 | 1.6 | 3.2 | 0.00 | 0.03 | 0.03 | 87 | 1013.9 |
| 20260507071728 | 11 | 82 | 0.0 | 0.0 | 0.00 | 0.03 | 0.03 | 88 | 1014.3 |
| 20260507071224 | 11 | 78 | 3.2 | 4.8 | 0.00 | 0.03 | 0.03 | 87 | 1014.3 |
| 20260507070721 | 11 | 85 | 0.0 | 0.0 | 0.00 | 0.03 | 0.03 | 86 | 1014.2 |
| 20260507070218 | 11 | 91 | 0.0 | 3.2 | 0.00 | 0.03 | 0.03 | 86 | 1014.3 |
| 20260507065714 | 11 | 105 | 4.8 | 4.8 | 0.00 | 0.03 | 0.03 | 86 | 1014.4 |
| 20260507065211 | 11 | 88 | 3.2 | 3.2 | 0.00 | 0.03 | 0.03 | 86 | 1014.5 |
| 20260507064709 | 11 | 76 | 0.0 | 0.0 | 0.00 | 0.03 | 0.03 | 86 | 1014.4 |
| 20260507064208 | 11 | 82 | 0.0 | 0.0 | 0.00 | 0.03 | 0.03 | 86 | 1014.2 |
| 20260507063705 | 11 | 94 | 3.2 | 4.8 | 0.00 | 0.03 | 0.03 | 86 | 1014.0 |
| 20260507063201 | 11 | 108 | 8.0 | 9.7 | 0.13 | 0.03 | 0.03 | 85 | 1014.2 |
| 20260507062658 | 11 | 87 | 3.2 | 4.8 | 0.13 | 0.03 | 0.03 | 84 | 1014.3 |
| 20260507062156 | 11 | 101 | 3.2 | 4.8 | 0.00 | 0.00 | 0.00 | 83 | 1014.4 |
| 20260507061654 | 11 | 89 | 0.0 | 0.0 | 0.00 | 0.00 | 0.00 | 82 | 1014.5 |
| 20260507061151 | 12 | 80 | 8.0 | 8.0 | 0.00 | 0.00 | 0.00 | 82 | 1014.5 |
| 20260507060649 | 12 | 128 | 6.4 | 9.7 | 0.00 | 0.00 | 0.00 | 82 | 1014.3 |
| 20260507060145 | 12 | 83 | 1.6 | 4.8 | 0.00 | 0.00 | 0.00 | 82 | 1014.5 |
| 20260507055641 | 12 | 75 | 3.2 | 4.8 | 0.00 | 0.00 | 0.00 | 83 | 1014.4 |
| 20260507055137 | 12 | 93 | 3.2 | 3.2 | 0.00 | 0.00 | 0.00 | 84 | 1013.8 |
| 20260507054633 | 12 | 91 | 3.2 | 4.8 | 0.00 | 0.00 | 0.00 | 84 | 1014.2 |
| 20260507054130 | 12 | 86 | 1.6 | 3.2 | 0.00 | 0.00 | 0.00 | 83 | 1014.4 |
| 20260507053628 | 12 | 92 | 1.6 | 3.2 | 0.00 | 0.00 | 0.00 | 84 | 1014.1 |
| 20260507053126 | 12 | 108 | 6.4 | 8.0 | 0.00 | 0.00 | 0.00 | 84 | 1014.4 |
| 20260507052624 | 12 | 85 | 0.0 | 0.0 | 0.00 | 0.00 | 0.00 | 86 | 1014.3 |
| 20260507052120 | 12 | 122 | 0.0 | 4.8 | 0.00 | 0.00 | 0.00 | 86 | 1014.2 |
| 20260507051618 | 12 | 131 | 4.8 | 4.8 | 0.00 | 0.00 | 0.00 | 86 | 1014.1 |
| 20260507051115 | 12 | 95 | 4.8 | 8.0 | 0.00 | 0.00 | 0.00 | 87 | 1014.3 |
| 20260507050611 | 12 | 85 | 3.2 | 4.8 | 0.00 | 0.00 | 0.00 | 87 | 1014.3 |
| 20260507050108 | 12 | 80 | 0.0 | 0.0 | 0.00 | 0.00 | 0.00 | 87 | 1014.2 |
| 20260507045605 | 12 | 86 | 3.2 | 4.8 | 0.00 | 0.00 | 0.00 | 87 | 1014.3 |
| 20260507045102 | 12 | 88 | 1.6 | 3.2 | 0.00 | 0.00 | 0.00 | 87 | 1013.9 |
| 20260507044558 | 12 | 109 | 4.8 | 4.8 | 0.00 | 0.00 | 0.00 | 87 | 1014.7 |
| 20260507044056 | 12 | 87 | 0.0 | 0.0 | 0.00 | 0.00 | 0.00 | 88 | 1014.8 |
| 20260507043551 | 12 | 87 | 0.0 | 0.0 | 0.00 | 0.00 | 0.00 | 87 | 1014.6 |
| 20260507043049 | 12 | 84 | 6.4 | 8.0 | 0.00 | 0.00 | 0.00 | 88 | 1014.5 |
| 20260507042544 | 12 | 88 | 0.0 | 0.0 | 0.00 | 0.00 | 0.00 | 88 | 1014.4 |
| 20260507042040 | 12 | 102 | 3.2 | 3.2 | 0.00 | 0.00 | 0.00 | 88 | 1014.0 |
| 20260507041537 | 12 | 90 | 1.6 | 3.2 | 0.00 | 0.00 | 0.00 | 88 | 1013.9 |
| 20260507041034 | 12 | 83 | 0.0 | 0.0 | 0.00 | 0.00 | 0.00 | 88 | 1013.8 |
| 20260507040531 | 12 | 105 | 6.4 | 8.0 | 0.00 | 0.00 | 0.00 | 88 | 1014.0 |
| 20260507040026 | 13 | 119 | 6.4 | 8.0 | 0.18 | 0.51 | 0.51 | 89 | 1014.0 |
| 20260507035523 | 13 | 14 | 3.2 | 4.8 | 0.18 | 0.51 | 0.51 | 89 | 1013.8 |
| 20260507035020 | 13 | 86 | 0.0 | 3.2 | 0.13 | 0.48 | 0.48 | 89 | 1014.0 |
| 20260507034516 | 13 | 85 | 0.0 | 0.0 | 0.30 | 0.48 | 0.48 | 88 | 1014.1 |
| 20260507034014 | 13 | 84 | 0.0 | 0.0 | 0.18 | 0.46 | 0.46 | 87 | 1014.0 |
| 20260507033512 | 13 | 83 | 6.4 | 8.0 | 0.00 | 0.43 | 0.43 | 85 | 1014.0 |
| 20260507033009 | 14 | 81 | 1.6 | 3.2 | 0.00 | 0.43 | 0.43 | 84 | 1013.7 |
| 20260507032506 | 14 | 86 | 1.6 | 3.2 | 0.00 | 0.43 | 0.43 | 83 | 1013.7 |
| 20260507032002 | 14 | 83 | 0.0 | 0.0 | 0.00 | 0.43 | 0.43 | 83 | 1013.7 |
| 20260507031458 | 14 | 91 | 0.0 | 0.0 | 0.00 | 0.43 | 0.43 | 83 | 1013.7 |
| 20260507030955 | 14 | 82 | 0.0 | 0.0 | 0.00 | 0.43 | 0.43 | 83 | 1013.8 |
| 20260507030452 | 14 | 83 | 0.0 | 0.0 | 0.00 | 0.43 | 0.43 | 82 | 1013.7 |
| 20260507025950 | 14 | 74 | 1.6 | 4.8 | 0.00 | 0.43 | 0.43 | 82 | 1013.9 |
| 20260507025447 | 14 | 101 | 4.8 | 8.0 | 0.00 | 0.43 | 0.43 | 82 | 1013.5 |
| 20260507024944 | 14 | 72 | 4.8 | 8.0 | 0.00 | 0.43 | 0.43 | 83 | 1013.5 |
| 20260507024442 | 14 | 99 | 0.0 | 3.2 | 0.00 | 0.43 | 0.43 | 82 | 1013.1 |
| 20260507023937 | 14 | 83 | 0.0 | 0.0 | 0.00 | 0.43 | 0.43 | 83 | 1013.3 |
| 20260507023434 | 14 | 87 | 8.0 | 9.7 | 0.00 | 0.43 | 0.43 | 83 | 1013.2 |
| 20260507022931 | 15 | 95 | 3.2 | 4.8 | 0.00 | 0.43 | 0.43 | 84 | 1013.4 |
| 20260507022429 | 15 | 103 | 4.8 | 4.8 | 0.00 | 0.43 | 0.43 | 83 | 1013.2 |
| 20260507021924 | 15 | 85 | 6.4 | 8.0 | 0.00 | 0.43 | 0.43 | 83 | 1013.2 |
| 20260507021419 | 15 | 81 | 0.0 | 0.0 | 0.00 | 0.43 | 0.43 | 84 | 1013.1 |
| 20260507020918 | 15 | 65 | 4.8 | 8.0 | 0.00 | 0.43 | 0.43 | 84 | 1013.2 |
| 20260507020414 | 15 | 99 | 1.6 | 3.2 | 0.00 | 0.43 | 0.43 | 84 | 1013.2 |
| 20260507015911 | 15 | 107 | 1.6 | 3.2 | 0.00 | 0.43 | 0.43 | 84 | 1013.2 |
| 20260507015409 | 15 | 117 | 16.1 | 20.9 | 0.00 | 0.43 | 0.43 | 84 | 1013.3 |
| 20260507014906 | 15 | 102 | 9.7 | 12.9 | 0.00 | 0.43 | 0.43 | 86 | 1013.4 |
| 20260507014402 | 15 | 88 | 3.2 | 4.8 | 0.00 | 0.43 | 0.43 | 87 | 1013.0 |
| 20260507013859 | 15 | 119 | 0.0 | 3.2 | 0.00 | 0.43 | 0.43 | 87 | 1013.1 |
| 20260507013356 | 15 | 99 | 4.8 | 8.0 | 0.00 | 0.43 | 0.43 | 88 | 1013.0 |
| 20260507012853 | 16 | 109 | 6.4 | 8.0 | 0.00 | 0.43 | 0.43 | 88 | 1012.8 |
| 20260507012349 | 16 | 133 | 3.2 | 8.0 | 0.13 | 0.43 | 0.43 | 89 | 1013.2 |
| 20260507011841 | 16 | 120 | 1.6 | 3.2 | 0.13 | 0.43 | 0.43 | 89 | 1013.3 |
| 20260507011338 | 16 | 67 | 3.2 | 4.8 | 0.00 | 0.41 | 0.41 | 89 | 1013.5 |
| 20260507010837 | 16 | 82 | 4.8 | 8.0 | 0.00 | 0.41 | 0.41 | 89 | 1013.4 |
| 20260507010333 | 16 | 99 | 1.6 | 3.2 | 0.00 | 0.41 | 0.41 | 88 | 1013.1 |
| 20260507005830 | 16 | 93 | 3.2 | 4.8 | 0.00 | 0.41 | 0.41 | 88 | 1013.4 |
| 20260507005327 | 16 | 82 | 3.2 | 4.8 | 0.00 | 0.41 | 0.41 | 88 | 1013.1 |
| 20260507004824 | 17 | 109 | 6.4 | 9.7 | 0.00 | 0.41 | 0.41 | 88 | 1013.1 |
| 20260507004321 | 17 | 85 | 1.6 | 3.2 | 0.00 | 0.41 | 0.41 | 87 | 1012.9 |
| 20260507003818 | 16 | 53 | 4.8 | 4.8 | 0.00 | 0.41 | 0.41 | 87 | 1013.1 |
| 20260507003313 | 16 | 80 | 0.0 | 3.2 | 0.00 | 0.41 | 0.41 | 87 | 1013.1 |
| 20260507002808 | 17 | 69 | 1.6 | 3.2 | 0.00 | 0.41 | 0.41 | 87 | 1012.8 |
| 20260507002306 | 17 | 43 | 3.2 | 3.2 | 0.00 | 0.41 | 0.41 | 85 | 1012.6 |
| 20260507001802 | 17 | 56 | 6.4 | 8.0 | 0.00 | 0.41 | 0.41 | 84 | 1012.7 |
| 20260507001300 | 17 | 102 | 3.2 | 4.8 | 0.00 | 0.41 | 0.41 | 83 | 1012.8 |
| 20260507000756 | 17 | 75 | 1.6 | 3.2 | 0.00 | 0.41 | 0.41 | 82 | 1012.7 |
| 20260507000252 | 17 | 67 | 3.2 | 4.8 | 0.00 | 0.41 | 0.41 | 82 | 1012.5 |
| 20260506235748 | 17 | 65 | 0.0 | 3.2 | 0.00 | 0.41 | 0.41 | 81 | 1012.3 |
| 20260506235244 | 18 | 66 | 4.8 | 8.0 | 0.00 | 0.41 | 0.41 | 81 | 1012.5 |
| 20260506234741 | 18 | 133 | 14.5 | 17.7 | 0.00 | 0.41 | 0.41 | 82 | 1012.2 |
| 20260506234238 | 18 | 79 | 1.6 | 3.2 | 0.00 | 0.41 | 0.41 | 83 | 1011.8 |
| 20260506233736 | 18 | 74 | 1.6 | 3.2 | 0.00 | 0.41 | 0.41 | 83 | 1012.0 |
| 20260506233232 | 18 | 78 | 1.6 | 3.2 | 0.00 | 0.41 | 0.41 | 82 | 1011.5 |
| 20260506232729 | 18 | 69 | 3.2 | 4.8 | 0.00 | 0.41 | 0.41 | 81 | 1011.6 |
| 20260506232224 | 18 | 75 | 0.0 | 0.0 | 0.00 | 0.41 | 0.41 | 81 | 1011.5 |
| 20260506231721 | 19 | 76 | 0.0 | 0.0 | 0.00 | 0.41 | 0.41 | 81 | 1011.5 |
| 20260506231220 | 19 | 67 | 1.6 | 4.8 | 0.00 | 0.41 | 0.41 | 81 | 1011.4 |
| 20260506230716 | 19 | 37 | 6.4 | 8.0 | 0.00 | 0.41 | 0.41 | 80 | 1011.4 |
| 20260506230213 | 19 | 65 | 6.4 | 9.7 | 0.00 | 0.41 | 0.41 | 79 | 1011.3 |
| 20260506225709 | 19 | 81 | 0.0 | 0.0 | 0.00 | 0.41 | 0.41 | 79 | 1011.5 |
| 20260506225206 | 19 | 83 | 0.0 | 3.2 | 0.00 | 0.41 | 0.41 | 80 | 1011.6 |
| 20260506224703 | 19 | 59 | 3.2 | 4.8 | 0.00 | 0.41 | 0.41 | 79 | 1011.5 |
| 20260506224200 | 19 | 53 | 4.8 | 8.0 | 0.00 | 0.41 | 0.41 | 79 | 1011.5 |
| 20260506223656 | 20 | 65 | 1.6 | 3.2 | 0.00 | 0.41 | 0.41 | 79 | 1011.3 |
| 20260506223152 | 20 | 117 | 4.8 | 4.8 | 0.00 | 0.41 | 0.41 | 78 | 1011.3 |
| 20260506222649 | 19 | 84 | 4.8 | 4.8 | 0.00 | 0.41 | 0.41 | 79 | 1011.3 |
| 20260506222145 | 20 | 37 | 6.4 | 8.0 | 0.00 | 0.41 | 0.41 | 78 | 1011.6 |
| 20260506221643 | 20 | 72 | 1.6 | 3.2 | 0.00 | 0.41 | 0.41 | 78 | 1011.5 |
| 20260506221141 | 19 | 44 | 8.0 | 9.7 | 0.00 | 0.41 | 0.41 | 78 | 1011.5 |
| 20260506220637 | 19 | 56 | 8.0 | 9.7 | 0.00 | 0.41 | 0.41 | 79 | 1011.5 |
| 20260506220132 | 19 | 74 | 3.2 | 3.2 | 0.00 | 0.41 | 0.41 | 79 | 1011.8 |
| 20260506215629 | 19 | 35 | 3.2 | 3.2 | 0.00 | 0.41 | 0.41 | 79 | 1011.4 |
| 20260506215124 | 19 | 60 | 3.2 | 4.8 | 0.00 | 0.41 | 0.41 | 79 | 1011.3 |
| 20260506214622 | 19 | 34 | 6.4 | 9.7 | 0.00 | 0.41 | 0.41 | 78 | 1011.5 |
| 20260506214119 | 19 | 37 | 6.4 | 8.0 | 0.00 | 0.41 | 0.41 | 78 | 1011.5 |
| 20260506213617 | 19 | 85 | 0.0 | 0.0 | 0.00 | 0.41 | 0.41 | 78 | 1011.4 |
| 20260506213114 | 19 | 66 | 4.8 | 4.8 | 0.00 | 0.41 | 0.41 | 78 | 1011.3 |
| 20260506212611 | 19 | 46 | 3.2 | 4.8 | 0.00 | 0.41 | 0.41 | 78 | 1011.2 |
| 20260506212106 | 19 | 48 | 1.6 | 3.2 | 0.00 | 0.41 | 0.41 | 79 | 1011.3 |
| 20260506211602 | 19 | 72 | 1.6 | 3.2 | 0.00 | 0.41 | 0.41 | 79 | 1011.3 |
| 20260506211059 | 19 | 54 | 3.2 | 4.8 | 0.00 | 0.41 | 0.41 | 78 | 1011.2 |
| 20260506210556 | 19 | 76 | 0.0 | 3.2 | 0.00 | 0.41 | 0.41 | 78 | 1011.0 |
| 20260506210052 | 19 | 53 | 6.4 | 9.7 | 0.00 | 0.41 | 0.41 | 77 | 1011.0 |
| 20260506205549 | 20 | 73 | 1.6 | 3.2 | 0.00 | 0.41 | 0.41 | 78 | 1010.8 |
| 20260506205044 | 20 | 81 | 4.8 | 4.8 | 0.00 | 0.41 | 0.41 | 77 | 1010.9 |
| 20260506204543 | 20 | 28 | 4.8 | 9.7 | 0.00 | 0.41 | 0.41 | 77 | 1010.9 |
| 20260506204039 | 20 | 77 | 3.2 | 8.0 | 0.00 | 0.41 | 0.41 | 76 | 1011.0 |
| 20260506203538 | 20 | 25 | 9.7 | 9.7 | 0.00 | 0.41 | 0.41 | 77 | 1010.9 |
| 20260506203034 | 19 | 77 | 3.2 | 3.2 | 0.00 | 0.41 | 0.41 | 77 | 1011.0 |
| 20260506202531 | 19 | 41 | 8.0 | 9.7 | 0.00 | 0.41 | 0.41 | 77 | 1011.1 |
| 20260506202028 | 19 | 69 | 4.8 | 8.0 | 0.00 | 0.41 | 0.41 | 77 | 1011.0 |
| 20260506201526 | 19 | 95 | 3.2 | 4.8 | 0.00 | 0.41 | 0.41 | 77 | 1011.1 |
| 20260506201022 | 19 | 41 | 6.4 | 8.0 | 0.00 | 0.41 | 0.41 | 77 | 1011.3 |
| 20260506200518 | 19 | 73 | 1.6 | 3.2 | 0.00 | 0.41 | 0.41 | 78 | 1011.3 |
| 20260506200015 | 20 | 21 | 8.0 | 9.7 | 0.00 | 0.41 | 0.41 | 77 | 1011.2 |
| 20260506195512 | 20 | 17 | 4.8 | 4.8 | 0.00 | 0.41 | 0.41 | 77 | 1011.0 |
| 20260506195008 | 19 | 13 | 9.7 | 12.9 | 0.00 | 0.41 | 0.41 | 78 | 1011.0 |
| 20260506194506 | 19 | 62 | 6.4 | 8.0 | 0.00 | 0.41 | 0.41 | 78 | 1011.1 |
| 20260506194002 | 20 | 43 | 6.4 | 8.0 | 0.00 | 0.41 | 0.41 | 77 | 1011.2 |
| 20260506193459 | 20 | 332 | 8.0 | 9.7 | 0.00 | 0.41 | 0.41 | 77 | 1011.2 |
| 20260506192956 | 20 | 67 | 1.6 | 4.8 | 0.00 | 0.41 | 0.41 | 76 | 1011.0 |
| 20260506192453 | 20 | 351 | 16.1 | 20.9 | 0.00 | 0.41 | 0.41 | 76 | 1011.0 |
| 20260506191949 | 19 | 317 | 17.7 | 20.9 | 0.00 | 0.41 | 0.41 | 77 | 1011.0 |
| 20260506191446 | 19 | 31 | 8.0 | 8.0 | 0.00 | 0.41 | 0.41 | 78 | 1011.1 |
| 20260506190942 | 18 | 7 | 9.7 | 16.1 | 0.00 | 0.41 | 0.41 | 78 | 1011.2 |
| 20260506190439 | 18 | 23 | 14.5 | 17.7 | 0.00 | 0.41 | 0.41 | 78 | 1011.3 |
| 20260506185936 | 18 | 14 | 6.4 | 12.9 | 0.00 | 0.41 | 0.41 | 78 | 1011.2 |
| 20260506185434 | 18 | 180 | 8.0 | 9.7 | 0.00 | 0.41 | 0.41 | 79 | 1011.3 |
| 20260506184931 | 18 | 2 | 9.7 | 17.7 | 0.00 | 0.41 | 0.41 | 80 | 1011.5 |
| 20260506184427 | 18 | 61 | 4.8 | 9.7 | 0.00 | 0.41 | 0.41 | 80 | 1011.5 |
| 20260506183925 | 18 | 17 | 8.0 | 9.7 | 0.00 | 0.41 | 0.41 | 81 | 1011.5 |
| 20260506183420 | 18 | 294 | 9.7 | 12.9 | 0.00 | 0.41 | 0.41 | 81 | 1011.6 |
| 20260506182918 | 18 | 27 | 11.3 | 12.9 | 0.00 | 0.41 | 0.41 | 81 | 1011.6 |
| 20260506182415 | 18 | 241 | 12.9 | 16.1 | 0.00 | 0.41 | 0.41 | 80 | 1011.5 |
| 20260506181912 | 18 | 66 | 3.2 | 4.8 | 0.00 | 0.41 | 0.41 | 80 | 1011.3 |
| 20260506181410 | 18 | 7 | 12.9 | 16.1 | 0.00 | 0.41 | 0.41 | 81 | 1011.6 |
| 20260506180906 | 17 | 278 | 14.5 | 16.1 | 0.00 | 0.41 | 0.41 | 81 | 1011.4 |
| 20260506180403 | 17 | 22 | 16.1 | 22.5 | 0.00 | 0.41 | 0.41 | 82 | 1011.6 |
| 20260506175900 | 17 | 337 | 14.5 | 17.7 | 0.00 | 0.41 | 0.41 | 82 | 1011.6 |
| 20260506175356 | 17 | 356 | 22.5 | 29.0 | 0.00 | 0.41 | 0.41 | 82 | 1011.8 |
| 20260506174853 | 17 | 27 | 9.7 | 9.7 | 0.00 | 0.41 | 0.41 | 83 | 1012.0 |
| 20260506174351 | 17 | 344 | 20.9 | 25.7 | 0.00 | 0.41 | 0.41 | 83 | 1011.9 |
| 20260506173848 | 17 | 334 | 11.3 | 16.1 | 0.00 | 0.41 | 0.41 | 83 | 1012.0 |
| 20260506173344 | 17 | 33 | 9.7 | 12.9 | 0.00 | 0.41 | 0.41 | 84 | 1011.8 |
| 20260506172842 | 17 | 15 | 9.7 | 16.1 | 0.00 | 0.41 | 0.41 | 84 | 1011.8 |
| 20260506172338 | 17 | 317 | 9.7 | 16.1 | 0.00 | 0.41 | 0.41 | 84 | 1012.0 |
| 20260506171835 | 16 | 31 | 3.2 | 4.8 | 0.00 | 0.41 | 0.41 | 85 | 1011.8 |
| 20260506171333 | 16 | 221 | 8.0 | 9.7 | 0.00 | 0.41 | 0.41 | 85 | 1011.6 |
| 20260506170830 | 17 | 17 | 12.9 | 16.1 | 0.00 | 0.41 | 0.41 | 85 | 1012.0 |
| 20260506170326 | 16 | 60 | 14.5 | 20.9 | 0.00 | 0.41 | 0.41 | 85 | 1011.9 |
| 20260506165825 | 16 | 349 | 14.5 | 20.9 | 0.00 | 0.41 | 0.41 | 85 | 1011.8 |
| 20260506165323 | 16 | 323 | 29.0 | 33.8 | 0.00 | 0.41 | 0.41 | 86 | 1012.0 |
| 20260506164819 | 16 | 9 | 12.9 | 16.1 | 0.00 | 0.41 | 0.41 | 87 | 1011.8 |
| 20260506164315 | 16 | 323 | 9.7 | 16.1 | 0.00 | 0.41 | 0.41 | 87 | 1011.8 |
| 20260506163813 | 16 | 312 | 11.3 | 20.9 | 0.00 | 0.41 | 0.41 | 87 | 1011.9 |
| 20260506163307 | 16 | 95 | 9.7 | 16.1 | 0.00 | 0.41 | 0.41 | 87 | 1011.8 |
| 20260506162803 | 16 | 9 | 14.5 | 22.5 | 0.00 | 0.41 | 0.41 | 87 | 1012.0 |
| 20260506162301 | 16 | 0 | 19.3 | 22.5 | 0.00 | 0.41 | 0.41 | 88 | 1012.0 |
| 20260506161758 | 16 | 5 | 6.4 | 9.7 | 0.00 | 0.41 | 0.41 | 88 | 1011.9 |
| 20260506161256 | 15 | 49 | 11.3 | 16.1 | 0.00 | 0.41 | 0.41 | 88 | 1011.6 |
| 20260506160753 | 15 | 358 | 14.5 | 25.7 | 0.00 | 0.41 | 0.41 | 89 | 1012.0 |
| 20260506160250 | 15 | 341 | 8.0 | 9.7 | 0.00 | 0.41 | 0.41 | 89 | 1012.0 |
| 20260506155749 | 15 | 332 | 9.7 | 16.1 | 0.00 | 0.41 | 0.41 | 89 | 1012.0 |
| 20260506155245 | 15 | 64 | 16.1 | 20.9 | 0.00 | 0.41 | 0.41 | 89 | 1012.2 |
| 20260506153352 | 15 | 319 | 12.9 | 16.1 | 0.00 | 0.41 | 0.41 | 90 | 1011.8 |
| 20260506152849 | 15 | 321 | 24.1 | 29.0 | 0.00 | 0.41 | 0.41 | 90 | 1011.8 |
| 20260506152346 | 15 | 304 | 24.1 | 33.8 | 0.00 | 0.41 | 0.41 | 91 | 1012.2 |
| 20260506151845 | 15 | 332 | 9.7 | 16.1 | 0.00 | 0.41 | 0.41 | 91 | 1012.1 |
| 20260506151341 | 15 | 309 | 14.5 | 20.9 | 0.00 | 0.41 | 0.41 | 91 | 1012.4 |
| 20260506150838 | 15 | 2 | 6.4 | 8.0 | 0.00 | 0.41 | 0.41 | 91 | 1012.3 |
| 20260506150335 | 15 | 26 | 22.5 | 29.0 | 0.18 | 0.41 | 0.41 | 91 | 1012.0 |
| 20260506145832 | 15 | 277 | 22.5 | 29.0 | 0.18 | 0.41 | 0.41 | 91 | 1012.3 |
| 20260506145328 | 15 | 38 | 14.5 | 20.9 | 0.30 | 0.41 | 0.41 | 91 | 1012.6 |
| 20260506144826 | 15 | 45 | 24.1 | 29.0 | 0.30 | 0.38 | 0.38 | 91 | 1012.6 |
| 20260506144322 | 15 | 321 | 17.7 | 22.5 | 0.18 | 0.36 | 0.36 | 91 | 1012.7 |
| 20260506143821 | 15 | 324 | 11.3 | 12.9 | 0.00 | 0.33 | 0.33 | 91 | 1012.9 |
| 20260506143317 | 15 | 0 | 12.9 | 16.1 | 0.00 | 0.33 | 0.33 | 91 | 1012.8 |
| 20260506142815 | 15 | 358 | 20.9 | 25.7 | 0.00 | 0.33 | 0.33 | 91 | 1012.6 |
| 20260506142313 | 15 | 331 | 22.5 | 30.6 | 0.18 | 0.33 | 0.33 | 91 | 1012.8 |
| 20260506141811 | 15 | 314 | 9.7 | 12.9 | 0.18 | 0.33 | 0.33 | 91 | 1012.3 |
| 20260506141309 | 15 | 3 | 17.7 | 20.9 | 0.00 | 0.30 | 0.30 | 91 | 1012.6 |
| 20260506140807 | 15 | 302 | 12.9 | 20.9 | 0.00 | 0.30 | 0.30 | 91 | 1012.4 |
| 20260506140303 | 15 | 314 | 12.9 | 16.1 | 0.00 | 0.30 | 0.30 | 91 | 1012.6 |
| 20260506135800 | 15 | 0 | 12.9 | 16.1 | 0.13 | 0.30 | 0.30 | 91 | 1012.4 |
| 20260506135256 | 15 | 359 | 8.0 | 9.7 | 0.30 | 0.30 | 0.30 | 90 | 1012.7 |
| 20260506134753 | 15 | 298 | 11.3 | 16.1 | 0.30 | 0.28 | 0.28 | 90 | 1012.6 |
| 20260506134250 | 15 | 352 | 9.7 | 12.9 | 0.30 | 0.28 | 0.28 | 90 | 1012.5 |
| 20260506133747 | 15 | 323 | 16.1 | 20.9 | 0.30 | 0.25 | 0.25 | 90 | 1012.4 |
| 20260506133243 | 15 | 346 | 14.5 | 25.7 | 0.18 | 0.23 | 0.23 | 90 | 1012.8 |
| 20260506132740 | 15 | 358 | 17.7 | 20.9 | 0.13 | 0.20 | 0.20 | 90 | 1013.1 |
| 20260506132238 | 15 | 45 | 16.1 | 20.9 | 0.13 | 0.20 | 0.20 | 90 | 1013.2 |
| 20260506131736 | 15 | 349 | 14.5 | 17.7 | 0.00 | 0.18 | 0.18 | 90 | 1013.0 |
| 20260506131231 | 15 | 59 | 11.3 | 16.1 | 0.18 | 0.18 | 0.18 | 90 | 1012.9 |